CHINASAT 9 (ZX 9)

Last updated on March 8, 2021, 6:42 a.m. UTC

1 33051U 08028A   21066.86819051 -.00000266  00000-0  00000-0 0  9998
2 33051   0.0089 206.3482 0003954 154.3921 209.7533  1.00269065 46684
UTC
Height (km)
Latitude
Longitude
Inclination
Orbital Period
UTC large
Height (km)
Speed (km/s)
/
Latitude / Longitude
Inclination (degrees)
Orbital Period (minutes)
Azimuth
Elevation
Range (km)
Doppler Factor
iOS Compass Heading
iOS Angle

Next 30 passes for location: Hong Kong

Rise time Rise Azimuth (degrees) Set time Set Azimuth (degrees) Duration Max altitude (degrees)

No matching passes for this satellites